Location: Unspecified
(0.0000°N, 0.0000°E)
Time: 07:17:08
(UTC+00:00)

Vanguard 3 - All Passes

Search period start: 23 May 2015 00:00
Search period end: 02 June 2015 00:00
Orbit: 509 x 3270 km, 33.3° (Epoch: 22 May)

Date Brightness Start Highest point End Pass type
(mag) Time Alt. Az. Time Alt. Az. Time Alt. Az.
23 May - 02:10:12 10° SW 02:28:17 59° SE 02:46:53 10° ENE visible
23 May - 04:26:06 10° WSW 04:46:11 67° NW 05:01:44 10° NE visible
23 May - 06:49:16 10° W 07:03:01 25° NNW 07:12:25 10° NNE daylight
23 May - 16:00:16 10° WNW 16:03:52 54° SSW 16:08:20 10° SE daylight
23 May - 22:46:07 10° S 22:52:44 15° SSE 23:01:51 10° SE night (unlit)
24 May - 00:56:31 10° SSW 01:11:40 41° SSE 01:29:58 10° E visible
24 May - 03:10:15 10° SW 03:29:56 89° SE 03:47:51 10° NE visible
24 May - 05:29:19 10° W 05:47:23 40° NW 06:00:27 10° NNE visible
24 May - 07:59:31 10° NW 08:04:44 12° NNW 08:08:19 10° N daylight
24 May - 14:47:52 10° NW 14:51:29 43° NE 14:55:09 10° ESE daylight
24 May - 17:01:01 10° WSW 17:03:28 15° SSW 17:06:13 10° S daylight
24 May - 23:43:45 10° SSW 23:55:13 27° SSE 00:10:45 10° E visible
25 May - 01:55:40 10° SW 02:13:25 66° SE 02:32:42 10° ENE visible
25 May - 04:11:40 10° WSW 04:31:20 60° NW 04:47:28 10° NE visible
25 May - 06:35:38 10° WNW 06:48:57 22° NNW 06:58:20 10° NNE daylight
25 May - 13:36:09 10° N 13:38:48 16° NNE 13:41:14 10° ENE daylight
25 May - 15:47:06 10° W 15:50:27 33° SSW 15:54:15 10° SSE daylight
25 May - 22:32:13 10° S 22:39:02 16° SSE 22:48:38 10° ESE night (unlit)
26 May - 00:42:09 10° SSW 00:57:02 46° SE 01:15:55 10° ENE visible
26 May - 02:55:47 10° WSW 03:14:56 82° NW 03:33:30 10° NE visible
26 May - 05:15:16 10° W 05:32:53 36° NNW 05:46:12 10° NNE visible
26 May - 07:46:34 10° NW 07:51:11 11° NNW 07:54:22 10° N daylight
26 May - 14:34:04 10° NW 14:38:03 74° NE 14:41:45 10° ESE daylight
26 May - 23:29:34 10° SSW 23:40:58 30° SSE 23:56:59 10° E visible
27 May - 01:41:16 10° SW 01:58:28 74° SE 02:18:19 10° ENE visible
27 May - 03:57:24 10° WSW 04:16:30 53° NW 04:33:04 10° NE visible
27 May - 06:22:09 10° WNW 06:34:57 20° NNW 06:44:13 10° NNE daylight
27 May - 13:21:28 10° NNW 13:25:26 25° NNE 13:28:39 10° E daylight
27 May - 15:34:08 10° W 15:37:02 21° SSW 15:40:00 10° SSE daylight
27 May - 22:18:11 10° S 22:25:13 17° SSE 22:35:21 10° ESE night (unlit)
28 May - 00:27:51 10° SW 00:42:18 52° SE 01:01:37 10° ENE visible
28 May - 02:41:28 10° WSW 02:59:56 74° NW 03:18:58 10° NE visible
28 May - 05:01:26 10° W 05:18:27 32° NNW 05:31:52 10° NNE visible
28 May - 07:33:17 10° NW 07:37:41 11° NNW 07:40:49 10° N daylight
28 May - 12:09:14 10° N 12:12:05 14° NNE 12:14:35 10° NE daylight
28 May - 14:20:20 10° WNW 14:24:34 67° SW 14:28:12 10° SE daylight
28 May - 23:15:24 10° SSW 23:26:37 33° SE 23:42:59 10° E visible
29 May - 01:26:59 10° SW 01:43:29 82° SE 02:03:44 10° ENE visible
29 May - 03:43:21 10° WSW 04:01:43 47° NNW 04:18:31 10° NE visible
29 May - 06:08:49 10° WNW 06:21:02 19° NNW 06:30:08 10° NNE daylight
29 May - 13:07:02 10° NW 13:12:03 40° NNE 13:15:43 10° ESE daylight
29 May - 15:21:34 10° WSW 15:23:33 13° SSW 15:25:25 10° S daylight
29 May - 22:04:06 10° S 22:11:18 19° SSE 22:21:54 10° ESE night (unlit)
30 May - 00:13:39 10° SW 00:27:32 58° SE 00:47:06 10° ENE visible
30 May - 02:27:20 10° WSW 02:44:59 66° NW 03:04:15 10° NE visible
30 May - 04:47:46 10° W 05:04:05 29° NNW 05:17:27 10° NNE visible
30 May - 07:19:28 10° NNW 07:24:13 11° NNW 07:27:48 10° N daylight
30 May - 11:53:49 10° NNW 11:58:48 21° NNE 12:02:29 10° ENE daylight
30 May - 14:06:41 10° WNW 14:11:01 41° SW 14:14:32 10° SE daylight
30 May - 23:01:16 10° SSW 23:12:10 37° SE 23:28:45 10° E visible
31 May - 01:12:51 10° SW 01:28:32 89° NW 01:48:56 10° NE visible
31 May - 03:29:28 10° W 03:47:02 42° NNW 04:03:51 10° NNE visible
31 May - 05:55:31 10° WNW 06:07:11 18° NNW 06:16:09 10° NNE daylight
31 May - 10:40:25 10° NNW 10:44:46 15° NNE 10:48:20 10° NE daylight
31 May - 12:52:40 10° NW 12:58:34 64° NNE 13:02:32 10° ESE daylight
31 May - 21:50:01 10° S 21:57:17 21° SE 22:08:16 10° E night (unlit)
31 May - 23:59:32 10° SW 00:12:44 65° SE 00:32:22 10° ENE visible
01 Jun - 02:13:21 10° WSW 02:30:07 58° NNW 02:49:22 10° NE visible
01 Jun - 04:34:19 10° WNW 04:49:50 26° NNW 05:03:00 10° NNE visible
01 Jun - 07:05:07 10° NNW 07:10:46 12° N 07:15:17 10° N daylight
01 Jun - 09:26:18 10° N 09:29:55 12° N 09:33:10 10° NNE daylight
01 Jun - 11:38:45 10° NW 11:45:26 31° NNE 11:49:50 10° E daylight
01 Jun - 13:53:07 10° W 13:57:23 28° SW 14:00:42 10° SSE daylight
01 Jun - 22:47:12 10° SSW 22:57:41 42° SE 23:14:18 10° ENE visible
